Location: Balaclava NSW 2575, Australia
(34.4510°S, 150.4953°E)
Time: 21:29:11
(UTC+10:00)

A-11 Canister half - Visible Passes

Search period start: 13 June 2021 00:00
Search period end: 23 June 2021 00:00
Orbit: 1513 x 1686 km, 47.2° (Epoch: 12 June)

Date Brightness Start Highest point End Pass type
(mag) Time Alt. Az. Time Alt. Az. Time Alt. Az.
13 Jun 9.3 18:40:27 10° WNW 18:49:51 61° SSW 18:55:12 30° SE visible
13 Jun 10.2 20:47:35 10° WSW 20:53:24 32° SW 20:53:24 32° SW visible
14 Jun 9.3 18:17:28 10° WNW 18:26:52 64° SSW 18:33:36 23° SE visible
14 Jun 9.9 20:24:33 10° WSW 20:31:48 37° SSW 20:31:48 37° SSW visible
15 Jun 9.3 17:54:30 10° WNW 18:03:53 67° SSW 18:11:58 17° SE visible
15 Jun 9.8 20:01:30 10° WSW 20:10:10 39° S 20:10:10 39° S visible
15 Jun 11.2 22:07:58 10° SW 22:08:22 11° SW 22:08:22 11° SW visible
16 Jun 9.2 17:31:32 10° WNW 17:40:56 70° SSW 17:50:19 12° SE visible
16 Jun 9.7 19:38:27 10° WSW 19:47:23 40° S 19:48:31 39° S visible
16 Jun 11.0 21:45:01 10° SW 21:46:43 16° SW 21:46:43 16° SW visible
17 Jun 9.2 17:08:35 10° WNW 17:17:58 73° SSW 17:27:46 10° SE visible
17 Jun 9.7 19:15:25 10° WSW 19:24:19 40° S 19:26:52 35° SSE visible
17 Jun 10.7 21:22:03 10° SW 21:25:03 22° SW 21:25:03 22° SW visible
18 Jun 9.7 18:52:22 10° WSW 19:01:16 41° S 19:05:12 30° SE visible
18 Jun 10.4 20:59:05 10° SW 21:03:24 27° SW 21:03:24 27° SW visible
19 Jun 9.7 18:29:20 10° W 18:38:14 41° S 18:43:33 24° SE visible
19 Jun 10.1 20:36:07 10° SW 20:41:44 33° SSW 20:41:44 33° SSW visible
20 Jun 9.7 18:06:17 10° W 18:15:11 42° SSW 18:21:53 19° SE visible
20 Jun 9.8 20:13:09 10° WSW 20:20:05 38° SSW 20:20:05 38° SSW visible
21 Jun 9.7 17:43:15 10° W 17:52:09 43° SSW 18:00:15 14° SE visible
21 Jun 9.6 19:50:11 10° WSW 19:58:26 41° S 19:58:26 41° S visible
21 Jun 11.1 21:55:32 10° SW 21:56:39 14° SW 21:56:39 14° SW visible
22 Jun 9.7 17:20:12 10° W 17:29:07 44° SSW 17:38:22 10° SE visible
22 Jun 9.5 19:27:12 10° WSW 19:36:12 41° S 19:36:49 41° SSE visible
22 Jun 10.8 21:32:36 10° SW 21:35:01 20° SW 21:35:01 20° SW visible
